TITAN 3C TRANSTAGE DEB, 28839

Orbit data source: Space-Track

TITAN 3C TRANSTAGE DEB, 28839 is space debris in HEO originally from a launch on Tue, 21 Dec 1965 UTC launched from the Air Force Eastern Test Range (AFETR). Debris objects in space refer to the collection of defunct objects orbiting the Earth. Examples of debris include non-operational satellites, rocket bodies, and fragments generated from explosions, collisions, or faulty payload assembly.

Loading next visibility...
Identifier
28839, 1965-108CR
Orbit
HEO
Country
Flag of USUS
Related business
Manufacturer
Unknown
Mission
Spacecraft
Bus & Motor
Unknown
Mass
Unknown
Launch date (UTC)
1965-12-21 (60 years ago)
Launch vehicle
Unknown
Launch site
Air Force Eastern Test Range (AFETR)
Object type
Payload
Rocket body
Debris
Shape & HBR
Unknown
Radar Cross Section
Medium (>0.1 m² and <1 m²)

Expand to show TLE details & history
Last TLE update: 3 months ago

TLE from 3 months ago
0 TITAN 3C TRANSTAGE DEB
1 28839U 65108CR  26076.60839990  .00000053  00000-0  00000-0 0  9993
2 28839  26.4612 222.1586 6747149  76.0011 345.8404  2.54832637198862
Epoch: 2026-03-17T14:36Z
TLE epoch observation values (Epoch: 2026-03-17T14:36:05.751Z)
Latitude
-0°
Longitude
-172.1585°
Altitude
4,237.281 km
Speed
7.582 km/s
True Right ascension
14h 48m 11s
True Declination
0° 00' 00"
Sunlit
Object was in daylight at epoch
Visualization orbit readout
Latitude
Unknown
Longitude
Unknown
Altitude
Unknown
Speed
Unknown
Apparent Right ascension
Unknown
Apparent Declination
Unknown
Sunlit
N/A
Visualization observer readout
Local Sidereal Time
02:31:39
Azimuth
Unknown
Elevation
Unknown
Doppler factor
Unknown
Orbital elements
Apogee altitude
31,545.047 km
Perigee altitude
987.801 km
Semi-major axis
22,644.561 km
Eccentricity
0.67471
Inclination
26.4612°
RAAN
222.1586°
Arg. of periapsis
76.0011°
True anomaly
284.13462°
Mean anomaly
345.8404°
Eccentric anomaly
322.08539°
Mean motion
0.63694 °/min
Orbital period
565.2 mins
BSTAR
0
Loading maneuver chart data...
Computing Atmospheric mass density...

Documentation

Showing up to 5 results
|